Home > Weather > Jørpeland > Past weeks

Flag for Norway Past Weather in Jørpeland, Norway — Yesterday and Last 2 Weeks

Now
61 °F

Drizzle. Broken clouds.


Feels Like: 61 °F
Forecast: 53 / 57 °F
Wind: 9 mph from Southeast

Location: Stavanger / Sola

Current Time: Jul 27, 2016 at 5:22:21 PM

Latest Report: Jul 27, 2016 at 4:50 PM


Visibility: N/A

Pressure: 29.77 "Hg

Humidity: 88%

Dew Point: 57 °F

Location of JørpelandLocation

Past Weather in Jørpeland — Graph

°F

Jørpeland Temperature Yesterday

Maximum temperature yesterday: 66 °F (at 5:20 PM)
Minimum temperature yesterday: 57 °F (at 3:50 AM)
Average temperature yesterday: 62 °F

High & Low Weather Summary for the Past Weeks

 TemperatureHumidityPressure
High79 °F (Jul 20, 3:20 PM)100% (Jul 17, 1:50 AM)30.15 "Hg (Jul 17, 1:50 AM)
Low50 °F (Jul 17, 1:50 AM)53% (Jul 20, 11:50 PM)29.65 "Hg (Jul 12, 3:20 PM)
Average62 °F82%29.97 "Hg
* Reported Jul 12 3:20 PM — Jul 27 3:50 PM, Jørpeland, Weather by CustomWeather, © 2016

Note: Actual official high and low records may vary slightly from our data, if they occured in-between our weather recording intervals... More about our weather records

Advertising

Jørpeland Weather History for the Previous 24 Hours

Scroll right to see more
 ConditionsComfort  
Time TempWeatherWind HumidityBarometerVisibility
3:50 PM
Wed, Jul 27
63 °FLight rain. Broken clouds.13 mph83%29.77 "HgN/A
3:20 PM63 °FRain. Broken clouds.12 mph88%29.80 "Hg6 mi
2:50 PM61 °FRain. Broken clouds.7 mph88%29.80 "Hg5 mi
2:20 PM61 °FLight rain. Scattered clouds.9 mph88%29.80 "HgN/A
1:50 PM61 °FLight rain. Broken clouds.12 mph88%29.83 "HgN/A
1:20 PM61 °FLight rain. Broken clouds.12 mph88%29.83 "HgN/A
12:50 PM61 °FLight rain. Broken clouds.10 mph88%29.83 "Hg6 mi
12:20 PM61 °FDrizzle. Broken clouds.12 mph88%29.83 "HgN/A
11:50 AM61 °FDrizzle. Broken clouds.12 mph88%29.83 "HgN/A
11:20 AM61 °FDrizzle. Broken clouds.12 mph88%29.83 "HgN/A
10:50 AM61 °FLight rain. Broken clouds.16 mph88%29.83 "Hg5 mi
10:20 AM61 °FLight rain. Broken clouds.22 mph88%29.80 "HgN/A
9:50 AM59 °FLight rain. Broken clouds.10 mph94%29.83 "HgN/A
9:20 AM59 °FRain showers. Broken clouds.8 mph94%29.86 "HgN/A
8:50 AM59 °FLight rain. Broken clouds.9 mph94%29.86 "HgN/A
8:20 AM59 °FLight rain. Broken clouds.9 mph94%29.86 "HgN/A
7:50 AM59 °FLight rain. Broken clouds.9 mph88%29.86 "HgN/A
7:20 AM59 °FDrizzle. Partly sunny.7 mph88%29.89 "HgN/A
6:50 AM59 °FLight rain. Broken clouds.9 mph88%29.89 "HgN/A
6:20 AM59 °FLight rain. Partly sunny.8 mph88%29.89 "HgN/A
5:50 AM57 °FPartly cloudy.5 mph94%29.92 "HgN/A
4:50 AM57 °FRain. Partly cloudy.3 mph94%29.92 "Hg6 mi
3:50 AM57 °FPartly cloudy.8 mph88%29.95 "HgN/A
2:50 AM57 °FPartly cloudy.6 mph94%29.95 "HgN/A
1:50 AM57 °FPartly cloudy.7 mph94%29.98 "HgN/A
12:50 AM57 °FPartly cloudy.8 mph88%29.98 "HgN/A
12:20 AM57 °FSprinkles. Partly cloudy.10 mph94%29.98 "HgN/A
11:50 PM
Tue, Jul 26
59 °FPartly cloudy.5 mph88%29.98 "HgN/A
11:20 PM59 °FPassing clouds.5 mph88%29.98 "HgN/A
10:50 PM59 °FBroken clouds.5 mph82%30.01 "HgN/A
10:20 PM59 °FBroken clouds.5 mph82%30.01 "HgN/A
9:50 PM61 °FScattered clouds.5 mph83%30.01 "HgN/A
9:20 PM61 °FScattered clouds.3 mph83%30.01 "HgN/A
8:50 PM63 °FScattered clouds.9 mph73%29.98 "HgN/A
8:20 PM63 °FScattered clouds.9 mph77%30.01 "HgN/A
7:50 PM63 °FScattered showers. Broken clouds.9 mph83%29.98 "HgN/A
7:20 PM63 °FScattered showers. Broken clouds.8 mph77%30.01 "HgN/A
6:50 PM63 °FRain showers. Broken clouds.10 mph77%29.98 "HgN/A
6:20 PM63 °FScattered showers. Broken clouds.10 mph83%30.01 "HgN/A
5:50 PM63 °FRain showers. Broken clouds.10 mph77%30.01 "HgN/A
5:20 PM66 °FScattered clouds.13 mph68%30.01 "HgN/A
Weather by CustomWeather, © 2016

See weather overviewHow to use our weather pages